Home > Weather > Fürth > Past weeks

Flag for Germany Weather for the Past 2 Weeks in Fürth, Bavaria, Germany

Now
34 °F

Passing clouds.


Feels Like: 31 °F
Forecast: 29 / 43 °F
Wind: 3 mph from East

Location: Nuernberg

Current Time: Feb 12, 2016 at 7:53:38 PM

Latest Report: Feb 12, 2016 at 7:20 PM


Visibility: N/A

Pressure: 29.42 "Hg

Humidity: 75%

Dew point: 27 °F

Location of FürthLocation

Historic Weather in Fürth — Graph

°F

Fürth Temperature Yesterday

Maximum temperature yesterday: 41 °F (at 2:50 PM)
Minimum temperature yesterday: 36 °F (at 12:20 AM)
Average temperature yesterday: 37 °F

High & Low Weather Summary for the Past Weeks

 TemperatureHumidityPressure
High54 °F (Feb 1, 6:50 AM)100% (Jan 29, 1:20 AM)30.42 "Hg (Jan 29, 1:20 AM)
Low30 °F (Feb 7, 5:20 AM)50% (Feb 7, 1:20 PM)29.15 "Hg (Feb 9, 6:50 PM)
Average41 °F82%29.92 "Hg
* Reported Jan 28 6:20 PM — Feb 12 6:50 PM, Fürth, Weather by CustomWeather, © 2016

Note: Actual official high and low records may vary slightly from our data, if they occured in-between our weather recording intervals... More about our weather records

Advertising

Fürth Weather History for the Previous 24 Hours

 ConditionsComfort  
Time TempWeatherWind HumidityBarometerVisibility
6:50 PM
Fri, Feb 12
36 °FClear.5 mph70%29.42 "Hg10 mi
6:20 PM36 °FClear.5 mph75%29.45 "Hg10 mi
5:50 PM37 °FClear.7 mph70%29.45 "Hg10 mi
5:20 PM37 °FSunny.8 mph70%29.45 "Hg10 mi
4:50 PM39 °FScattered clouds.8 mph65%29.45 "HgN/A
4:20 PM39 °FScattered clouds.9 mph65%29.45 "HgN/A
3:50 PM41 °FScattered clouds.10 mph66%29.47 "HgN/A
3:20 PM43 °FScattered clouds.8 mph61%29.47 "HgN/A
2:50 PM43 °FScattered clouds.10 mph57%29.50 "HgN/A
2:20 PM41 °FScattered clouds.8 mph66%29.50 "HgN/A
1:50 PM41 °FScattered clouds.9 mph66%29.53 "HgN/A
1:20 PM41 °FScattered clouds.7 mph61%29.53 "HgN/A
12:50 PM41 °FScattered clouds.9 mph66%29.56 "HgN/A
12:20 PM39 °FScattered clouds.8 mph70%29.59 "HgN/A
11:50 AM39 °FScattered clouds.7 mph70%29.59 "HgN/A
11:20 AM37 °FScattered clouds.3 mph81%29.62 "HgN/A
10:50 AM37 °FPassing clouds.7 mph81%29.62 "HgN/A
10:20 AM39 °FPassing clouds.6 mph70%29.62 "HgN/A
9:50 AM37 °FScattered clouds.6 mph81%29.65 "HgN/A
9:20 AM36 °FScattered clouds.6 mph93%29.65 "HgN/A
8:50 AM36 °FScattered showers. Scattered clouds.5 mph93%29.65 "HgN/A
8:20 AM34 °FLight rain. Scattered clouds.3 mph93%29.68 "HgN/A
7:50 AM34 °FLight rain. Scattered clouds.2 mph93%29.68 "HgN/A
7:20 AM32 °FPassing clouds.3 mph100%29.68 "Hg4 mi
6:20 AM34 °FLight rain. Partly cloudy.2 mph93%29.68 "HgN/A
5:50 AM34 °FPartly cloudy.3 mph93%29.68 "HgN/A
5:20 AM34 °FPartly cloudy.2 mph93%29.68 "HgN/A
4:50 AM36 °FPassing clouds.3 mph87%29.68 "HgN/A
4:20 AM34 °FPassing clouds.2 mph93%29.68 "HgN/A
3:50 AM34 °FPassing clouds.2 mph93%29.68 "HgN/A
3:20 AM36 °FPassing clouds.3 mph87%29.68 "HgN/A
2:50 AM36 °FLight rain. Partly cloudy.3 mph87%29.71 "HgN/A
2:20 AM36 °FLight rain. Partly cloudy.6 mph87%29.71 "HgN/A
1:50 AM36 °FLight rain. Partly cloudy.3 mph87%29.71 "HgN/A
1:20 AM36 °FPartly cloudy.2 mph87%29.71 "HgN/A
12:50 AM36 °FPassing clouds.1 mph87%29.71 "HgN/A
12:20 AM36 °FChilly.2 mph93%29.71 "HgN/A
11:50 PM
Thu, Feb 11
36 °FPassing clouds.2 mph93%29.71 "HgN/A
10:50 PM36 °FPassing clouds.2 mph93%29.71 "HgN/A
10:20 PM36 °FPassing clouds.1 mph87%29.71 "HgN/A
9:50 PM36 °FPassing clouds.2 mph93%29.71 "HgN/A
9:20 PM37 °FClear.1 mph87%29.71 "Hg10 mi
8:50 PM36 °FPassing clouds.1 mph93%29.71 "HgN/A
8:20 PM36 °FPassing clouds.2 mph93%29.71 "HgN/A
7:50 PM37 °FPassing clouds.1 mph87%29.71 "HgN/A
7:20 PM37 °FPassing clouds.2 mph87%29.71 "HgN/A
Weather by CustomWeather, © 2016

See weather overviewHow to use our weather pages